Location: Palomar Mountain Lodge
(33.3110°N, 116.8495°W)
Time: 17:22:26
(UTC-08:00)

Cosmos 1626 Rocket - Pass Details

Date: 14 June 2018
Orbit: 603 x 631 km, 82.5° (Epoch: 13 December)

Event Time Altitude Azimuth Distance (km) Brightness Sun altitude
Exits shadow 21:34:33 - 198° (SSW) 2,236 6.2 -17.0°
Reaches altitude 10° 21:35:09 10° 199° (SSW) 1,997 5.9 -17.1°
Maximum altitude 21:39:30 56° 278° (W) 748 4.2 -17.8°
Drops below altitude 10° 21:43:54 10° 357° (N) 2,011 6.9 -18.4°
Sets 21:46:11 0° 2° (N) 2,921 7.7 -18.8°
